Regional Weather Roundup
Issued by NWS Sterling, VA

Home | Current Version | Previous Version | Graphics & Text | Print | Product List | Glossary On
Versions: 1 2 3 4 5 6 7 8 9 10 11 12 13 14 15 16 17 18 19 20 21 22 23 24 25 26 27 28
000
ASUS41 KLWX 270811
RWRLWX

REGIONAL WEATHER ROUNDUP
NATIONAL WEATHER SERVICE BALTIMORE MD/WASHINGTON DC
400 AM EDT SAT MAY 27 2017

Note: "FAIR" indicates few or no clouds below 12,000 feet
with no significant weather and/or obstructions to visibility.
 TC=TEMPERATURE CELSIUS

 * =Non NWS site. Station does not report precipitation (e.g. rain,
    snow, etc.), thunder, or fog.

DCZ001-MDZ009-015-VAZ040>042-051-053>054-270900-
WASHINGTON METRO

CITY           SKY/WX    TMP DP  RH WIND       PRES   REMARKS
WASHINGTON NAT MOCLDY    63  59  87 CALM      29.93R
DULLES         MOCLDY    57  55  93 CALM      29.93S
ANDREWS AFB    CLOUDY    60  55  83 W3        29.91S
FT BELVOIR     MOCLDY    58  56  93 CALM      29.93R
QUANTICO       MOCLDY    60  59  96 NW7       29.94R
COLLEGE PARK*  CLOUDY    58  55  89 CALM      29.92S
LEESBURG*      PTCLDY    57  57 100 CALM      29.95R
MANASSAS*      CLOUDY    58  57  97 CALM      29.95R
GAITHERSBURG*  PTCLDY    54  53  97 CALM      29.95R

$$

MDZ006>007-011-014-270900-
BALTIMORE METRO

CITY           SKY/WX    TMP DP  RH WIND       PRES   REMARKS
BWI AIRPORT    CLOUDY    59  56  89 W3        29.91S
MD SCIENCE CTR   N/A     65  54  67 MISG      29.92R
MARTIN STATE   CLOUDY    61  59  94 CALM      29.92S
ANNAPOLIS      CLOUDY    63  58  83 CALM      29.91R
FORT MEADE*    CLOUDY    54  54 100 CALM      29.94S

$$

MDZ012-015-019>023-270900-
MARYLAND EASTERN SHORE

CITY           SKY/WX    TMP DP  RH WIND       PRES   REMARKS
OCEAN CITY     MOCLDY    61  54  77 NW5       29.91R
SALISBURY      MOCLDY    57  56  96 CALM      29.90S
BAY BRIDGE AP* CLOUDY    64  57  77 CALM      29.91S
CAMBRIDGE*     PTCLDY    59  57  94 CALM      29.91S
EASTON*        MOCLDY    62  57  83 CALM      29.95R

$$

MDZ017>025-270900-
SOUTHERN MARYLAND

CITY           SKY/WX    TMP DP  RH WIND       PRES   REMARKS
PATUXENT RIVER CLOUDY    60  58  92 SW7       29.92R
ST INIGOES     CLOUDY    58  57  97 CALM      29.91S
LEONARDTOWN*   CLOUDY    55  54  94 CALM      29.94R

$$

MDZ003>005-270900-
NORTH CENTRAL MARYLAND

CITY           SKY/WX    TMP DP  RH WIND       PRES   REMARKS
FREDERICK*     MOCLDY    55  55 100 CALM      29.97R
HAGERSTOWN APT PTCLDY    59  53  80 SW5       29.94R
WESTMINSTER*   MOCLDY    59  54  82 CALM      29.93S

$$

MDZ501>502-270900-
WESTERN MARYLAND

CITY           SKY/WX    TMP DP  RH WIND       PRES   REMARKS
OAKLAND*       PTCLDY    52  52 100 S6        29.94F
CUMBERLAND*    MOCLDY    55  55 100 CALM      29.98F

$$

VAZ025>031-270900-
SHENANDOAH VALLEY

CITY           SKY/WX    TMP DP  RH WIND       PRES   REMARKS
WINCHESTER*    MOCLDY    54  54 100 W3        29.95S
FRONT ROYAL*   CLOUDY    57  55  94 CALM      29.95R
LURAY*         MOCLDY    54  54 100 CALM      29.96R
NEW MARKET*    PTCLDY    55  53  93 CALM      29.95S
STAUNTON*      CLEAR     52  51  95 CALM      29.97F
WAYNESBORO*    CLEAR     54  54  99 SE6       29.97S

$$

WVZ021-048>050-054>055-270900-
EASTERN WEST VIRGINIA PANHANDLE

CITY           SKY/WX    TMP DP  RH WIND       PRES   REMARKS
MARTINSBURG    CLEAR     54  52  93 SW3       29.94R
PETERSBURG*    PTCLDY    57  57  98 SW5       29.90F FOG

$$

VAZ036>039-050-270900-
CENTRAL FOOTHILLS

CITY           SKY/WX    TMP DP  RH WIND       PRES   REMARKS
CHARLOTTESVILL CLEAR     59  56  89 W6        29.94S
CULPEPER*      CLOUDY    58  57  99 CALM      29.95S
ORANGE*        PTCLDY    54  52  94 CALM      29.94R
GORDONSVILLE*  CLEAR     55  55 100 CALM      29.94R
WARRENTON*     CLOUDY    59  56  90 CALM      29.94R

$$

VAZ055>057-270900-
NORTH AND CENTRAL PIEDMONT

CITY           SKY/WX    TMP DP  RH WIND       PRES   REMARKS
FREDERICKSBRG* PTCLDY    57  57 100 CALM      29.93R
STAFFORD*      CLOUDY    55  55 100 NW3       29.98R

$$

NCZ024-NYZ072-PAZ021-071-VAZ022-071-270900-
OTHER REGIONAL OBSERVATIONS

CITY           SKY/WX    TMP DP  RH WIND       PRES   REMARKS
NEW YORK CITY  CLEAR     61  54  77 VRB3      29.85R
PHILADELPHIA   CLEAR     59  52  77 W8        29.89R
PITTSBURGH     CLOUDY    57  55  93 CALM      29.89F
ROANOKE        PTCLDY    60  54  80 CALM      29.97F
RICHMOND       CLEAR     59  57  93 N3        29.92R
RALEIGH        PTCLDY    63  58  83 SW5       29.96R

$$

ANZ530>537-270900-
MARINE OBSERVATIONS

STATION/POSITION TIME  TEMP    WIND        PRES
                       AIR SEA DIR/SP/G
                 (UTC) (F)     (DEG/KT/KT) (MB)
THOMAS PT LIGHT  0800   64 64  300/  8/  8   N/A
BALT KEY BRIDGE  0748   64     270/  5/  6 1012.8R
COVE POINT       0748   66     340/  5/  7 1013.6R
LEWISETTA        0748   63 69  280/  2/  2 1012.9S
SOLOMONS ISLAND  0748   63 67  250/  4/  5   N/A
PINEY POINT      0742          340/  2/  3   N/A

$$





USA.gov is the U.S. government's official web portal to all federal, state and local government web resources and services.